Home   Weather   Solothurn   Past weeks
Flag for Switzerland

Past Weather in Solothurn, Solothurn, Switzerland — Yesterday and Last 2 Weeks

Now
83 °F

Warm.


Feels Like: 84 °F
Forecast: 72 / 62 °F
Wind: 10 mph from West

Location: Grenchen

Current Time: Aug 18, 2019 at 8:05:34 pm

Latest Report: Aug 18, 2019 at 7:00 pm


Visibility: N/A

Pressure: 29.77 "Hg

Humidity: 45%

Dew Point: 60 °F

Location of SolothurnLocation

Past Weather in Solothurn — Graph

°F

Solothurn Temperature Yesterday

Maximum temperature yesterday: 76 °F (at 6:00 pm)
Minimum temperature yesterday: 53 °F (at 4:00 am)
Average temperature yesterday: 64 °F

High & Low Weather Summary for the Past Weeks

 TemperatureHumidityPressure
High90 °F (Aug 18, 5:00 pm)100% (Aug 4, 5:00 am)30.18 "Hg (Aug 4, 5:00 am)
Low47 °F (Aug 14, 5:00 am)33% (Aug 18, 3:00 pm)29.74 "Hg (Aug 18, 5:00 pm)
Average66 °F78%29.99 "Hg
* Reported Aug 3 6:00 pm — Aug 18 6:00 pm, Solothurn. Weather by CustomWeather, © 2019

Note: Actual official high and low records may vary slightly from our data, if they occured in-between our weather recording intervals... More about our weather records

Advertising

Solothurn Weather History for the Previous 24 Hours

Scroll right to see more
 ConditionsComfort  
Time TempWeatherWind HumidityBarometerVisibility
6:00 pm
Sun, Aug 18
87 °FPleasantly warm.13 mph40%29.75 "HgN/A
5:00 pm90 °FHot.15 mph33%29.74 "HgN/A
4:00 pm89 °FHot.15 mph35%29.75 "HgN/A
3:00 pm88 °FHot.17 mph33%29.75 "HgN/A
2:00 pm87 °FPleasantly warm.14 mph37%29.77 "HgN/A
1:00 pm82 °FWarm.6 mph47%29.79 "HgN/A
12:00 pm79 °FWarm.6 mph52%29.81 "HgN/A
10:00 am71 °FMild.2 mph73%29.85 "HgN/A
9:00 am65 °FMild.1 mph85%29.87 "HgN/A
8:00 am61 °FCool.2 mph100%29.90 "HgN/A
7:00 am56 °FCool.No wind100%29.92 "HgN/A
6:00 am57 °FCool.1 mph100%29.91 "HgN/A
5:00 am58 °FCool.3 mph100%29.91 "HgN/A
4:00 am59 °FCool.2 mph100%29.91 "HgN/A
3:00 am62 °FCool.2 mph99%29.91 "HgN/A
2:00 am62 °FMild.1 mph99%29.91 "HgN/A
1:00 am65 °FMild.3 mph91%29.91 "HgN/A
12:00 am67 °FMild.3 mph83%29.90 "HgN/A
11:00 pm
Sat, Aug 17
66 °FMild.3 mph90%29.90 "HgN/A
10:00 pm67 °FMild.6 mph91%29.90 "HgN/A
9:00 pm69 °FMild.7 mph88%29.90 "HgN/A
8:00 pm72 °FMild.3 mph74%29.90 "HgN/A
Weather by CustomWeather, © 2019

See weather overview